Left ArrowRight Arrow

Hourly Observations for March 22, 2020

Temp ( °F °C ) Dew Point ( °F °C ) Humidity (%) Winds ( mph kmh ) Pressure ( in mb ) Visibility ( mi km ) Precip ( " mm )
12:53 am 00:53 Mostly Clear 32 0 22 -5.6 66 66 NW 3 6 29.96 1015 10 16 0.00 0.00
1:53 am 01:53 Clear 34 1.1 21 -6.1 59 59 NW 6 9 29.94 1014 10 16 0.00 0.00
2:53 am 02:53 Clear 32 0 21 -6.1 64 64 WNW 8 13 29.94 1014 10 16 0.00 0.00
3:53 am 03:53 Partly Cloudy 34 1.1 23 -5 64 64 NW 10 17 29.92 1013 10 16 0.00 0.00
4:53 am 04:53 Partly Cloudy 32 0 21 -6.1 64 64 WNW 3 6 29.91 1013 10 16 0.00 0.00
5:53 am 05:53 Mostly Cloudy 32 0 21 -6.1 64 64 Calm 29.91 1013 10 16 0.00 0.00
6:53 am 06:53 Partly Cloudy 30 -1.1 21 -6.1 69 69 Calm 29.94 1014 10 16 0.00 0.00
7:53 am 07:53 Sunny 31 -0.6 24 -4.4 76 76 Calm 29.96 1015 10 16 0.00 0.00
8:53 am 08:53 Mostly Cloudy 36 2.2 24 -4.4 62 62 Calm 29.96 1015 10 16 0.00 0.00
9:53 am 09:53 Mostly Cloudy 39 3.9 25 -3.9 57 57 N 16 26 29.96 1015 10 16 0.00 0.00
10:53 am 10:53 Cloudy 40 4.4 25 -3.9 55 55 N 13 20 29.98 1015 10 16 0.00 0.00
11:53 am 11:53 Cloudy 38 3.3 26 -3.3 62 62 N 13 20 29.99 1016 10 16 0.00 0.00
12:53 pm 12:53 Cloudy 38 3.3 29 -1.7 70 70 N 15 24 30.01 1016 10 16 0.00 0.00
1:20 pm 13:20 Cloudy with Light Snow 35 1.7 30 -1.1 82 82 NNW 18 30 30.05 1018 2 3 0.00 0.00
1:30 pm 13:30 Cloudy with Light Snow 36 2.2 30 -1.1 79 79 N 14 22 30.03 1017 2 3 0.00 0.00
1:38 pm 13:38 Cloudy 37 2.8 30 -1.1 76 76 N 12 19 30.02 1016 8 13 0.00 0.00
1:53 pm 13:53 Cloudy 38 3.3 28 -2.2 68 68 N 9 15 30.00 1016 10 16 0.00 0.00
2:53 pm 14:53 Cloudy 39 3.9 29 -1.7 67 67 N 13 20 30.00 1016 10 16 0.00 0.00
3:03 pm 15:03 Cloudy with Light Snow 36 2.2 29 -1.7 76 76 NNW 13 20 30.02 1017 4 6 0.00 0.00
3:09 pm 15:09 Cloudy with Light Snow 36 2.2 29 -1.7 76 76 NNW 13 20 30.02 1017 2 3 0.00 0.00
3:16 pm 15:16 Cloudy with Light Snow 37 2.8 29 -1.7 73 73 NNW 10 17 30.01 1016 3 5 0.00 0.00
3:53 pm 15:53 Cloudy 41 5 28 -2.2 60 60 NNW 10 17 29.97 1015 10 16 0.00 0.00
4:53 pm 16:53 Mostly Cloudy 41 5 27 -2.8 57 57 NNW 9 15 29.98 1015 10 16 0.00 0.00
5:53 pm 17:53 Mostly Sunny 40 4.4 27 -2.8 60 60 N 9 15 29.99 1016 10 16 0.00 0.00
6:53 pm 18:53 Sunny 36 2.2 27 -2.8 70 70 WNW 5 7 30.01 1016 10 16 0.00 0.00
7:53 pm 19:53 Clear 31 -0.6 25 -3.9 79 79 W 5 7 30.04 1017 10 16 0.00 0.00
8:53 pm 20:53 Clear 30 -1.1 24 -4.4 79 79 WSW 6 9 30.04 1017 10 16 0.00 0.00
9:53 pm 21:53 Clear 30 -1.1 23 -5 75 75 SW 5 7 30.03 1017 10 16 0.00 0.00
10:53 pm 22:53 Clear 30 -1.1 22 -5.6 72 72 WSW 6 9 30.02 1017 10 16 0.00 0.00
11:53 pm 23:53 Clear 30 -1.1 22 -5.6 72 72 SSE 6 9 30.01 1016 10 16 0.00 0.00

Powered by Vaisala Xweather